Wind_Speed
34 34 35 32 30 34 43 46 46 42 40 36 35 34 36 33 35 33 33 36 34 31 31 27 29 29 26 26 22 23 20 18
31 29 32 37 35 30 45 48 49 45 45 48 37 43 39 38 37 37 37 34 41 36 34 29 30 32 30 28 26 24 24 20
31 30 29 34 32 36 43 50 50 51 49 48 45 45 40 44 36 38 38 35 37 41 36 32 33 33 30 28 31 29 28 26
43 33 34 29 39 35 36 50 52 54 52 46 49 37 38 37 41 37 40 39 36 42 41 36 36 35 35 33 33 34 33 32
38 43 40 34 24 35 31 47 52 54 51 49 48 47 46 43 47 43 43 44 41 39 43 42 37 39 37 38 36 35 32 35
42 46 44 42 38 27 37 38 49 53 49 50 50 51 42 46 43 46 42 45 45 42 43 42 40 40 39 39 40 38 37 35
24 43 45 45 44 42 30 40 45 48 48 51 53 53 51 45 45 45 48 46 47 47 43 47 47 41 43 42 40 39 38 40
32 31 23 21 44 48 42 39 45 43 46 49 54 55 54 47 48 49 52 53 50 52 47 48 49 51 47 45 44 42 40 40
30 31 34 30 19 36 42 36 45 46 49 53 53 54 50 55 46 50 53 58 54 50 52 52 50 49 52 49 47 47 44 42
35 36 36 32 30 26 25 42 52 51 48 52 50 53 56 52 51 51 55 55 50 43 49 52 54 52 51 52 50 50 48 48
36 38 38 34 32 34 33 30 40 55 48 46 51 53 57 52 52 49 50 53 50 45 43 49 52 53 53 52 52 51 51 50
35 35 34 31 27 35 32 32 33 35 47 48 48 52 55 58 48 54 49 48 50 46 41 46 48 51 52 52 52 52 52 52
28 32 35 32 26 32 30 26 22 34 43 47 45 47 51 51 55 49 51 48 49 49 46 43 46 47 49 51 51 51 52 53
27 31 37 36 30 28 22 17 13 6 21 43 46 45 45 48 53 57 47 48 47 49 48 47 46 46 45 47 48 48 49 51
26 31 36 32 32 30 24 23 19 12 8 6 37 46 47 50 53 51 54 47 48 49 50 49 48 48 46 46 46 47 48 50
24 25 32 38 36 32 33 26 24 21 15 7 10 16 44 49 50 46 48 49 46 51 51 49 50 49 49 47 47 47 47 48
22 21 29 36 40 36 31 32 26 20 18 17 12 12 10 36 43 42 42 45 46 47 48 51 49 51 52 49 48 47 48 49
21 26 18 27 37 38 37 34 32 29 20 15 14 16 15 12 23 42 43 43 43 48 46 47 47 50 50 50 50 48 46 47
22 21 18 22 28 33 35 35 35 32 32 26 20 13 15 20 16 12 32 43 45 47 47 44 43 46 47 49 50 49 49 48
Wind_Direction
240 238 243 240 230 221 205 203 201 208 213 195 206 200 202 203 203 209 218 210 200 206 199 209 191 202 204 199 203 187 192 188
261 242 233 235 238 237 202 202 201 203 203 205 202 200 205 201 206 206 221 215 204 212 202 205 204 202 207 207 196 191 186 183
277 263 254 246 236 233 211 207 205 204 208 210 203 204 205 204 203 207 218 221 213 211 207 202 212 206 208 212 198 194 190 187
273 274 263 256 231 231 217 205 206 203 208 204 205 210 207 207 203 208 212 223 222 216 213 202 215 217 210 214 209 205 197 191
262 266 269 264 263 233 234 208 202 202 202 202 204 205 207 209 206 203 212 223 226 222 219 207 213 221 217 216 218 213 208 200
244 256 263 265 264 270 231 217 200 206 206 206 206 207 212 210 209 206 209 215 226 225 222 214 207 220 220 220 222 220 215 212
334 241 246 262 266 266 269 221 200 208 210 215 209 210 209 212 210 208 208 210 218 228 225 220 213 214 222 221 226 228 224 221
348 336 322 297 253 259 258 228 203 209 217 220 218 215 213 213 210 210 208 208 216 225 224 220 221 216 223 223 226 230 230 226
342 336 330 319 303 261 252 236 205 207 218 222 224 217 214 214 214 212 216 221 229 229 224 222 223 223 223 229 226 231 233 232
340 335 328 322 308 288 292 251 209 210 214 222 228 223 214 217 215 218 220 227 234 230 223 222 224 226 226 227 229 229 232 237
338 338 328 318 305 305 293 277 250 203 214 219 221 225 219 216 216 218 219 224 230 233 222 223 223 226 228 227 230 231 231 235
334 336 326 322 309 312 309 292 262 239 213 212 219 220 219 219 219 217 221 222 228 227 227 222 226 225 226 228 231 231 231 234
338 338 340 341 336 324 320 315 306 234 218 218 215 219 221 221 220 222 219 221 224 225 230 225 227 226 226 228 230 231 232 233
356 357 351 342 358 1 343 335 307 314 232 219 222 221 227 227 228 227 224 222 222 226 226 228 227 227 226 229 230 232 233 236
355 357 353 347 4 12 351 335 325 317 262 235 220 223 225 228 233 230 226 225 223 222 226 226 229 231 231 231 232 232 236 238
352 350 354 3 5 14 12 356 336 322 318 298 237 233 227 229 225 226 230 227 225 224 221 225 226 230 233 234 236 237 237 239
339 342 7 4 11 20 16 17 7 357 329 306 284 248 235 229 235 234 233 232 229 226 222 225 224 228 233 239 240 238 240 238
356 355 331 347 3 14 18 18 21 22 13 351 323 278 255 229 228 233 233 226 226 224 225 224 228 229 232 236 238 238 241 242
350 345 357 351 360 11 8 10 15 18 22 21 14 343 289 260 246 230 229 228 223 223 224 224 227 231 233 234 236 237 239 241
Height
1465 1468 1470 1471 1475 1476 1477 1482 1490 1497 1505 1513 1517 1522 1525 1528 1531 1533 1536 1542 1547 1551 1556 1560 1564 1567 1569 1572 1576 1580 1584 1587
1458 1460 1462 1465 1467 1470 1469 1474 1481 1489 1496 1504 1510 1512 1516 1522 1525 1529 1530 1536 1542 1546 1552 1556 1559 1562 1564 1568 1572 1576 1580 1583
1454 1454 1456 1458 1461 1464 1464 1465 1471 1478 1486 1495 1503 1507 1511 1515 1521 1524 1525 1531 1536 1540 1546 1551 1553 1558 1561 1563 1567 1570 1575 1578
1452 1450 1449 1450 1454 1457 1458 1458 1463 1469 1477 1489 1498 1505 1511 1513 1516 1519 1520 1523 1529 1533 1538 1544 1547 1552 1555 1558 1561 1565 1569 1573
1448 1445 1441 1444 1447 1450 1454 1451 1455 1462 1470 1478 1486 1493 1496 1501 1504 1510 1513 1515 1521 1526 1531 1537 1540 1544 1549 1552 1556 1560 1564 1567
1441 1442 1438 1437 1440 1444 1447 1448 1448 1453 1460 1468 1477 1484 1490 1496 1499 1504 1507 1509 1513 1519 1524 1529 1534 1537 1542 1545 1548 1554 1557 1560
1436 1436 1439 1436 1436 1439 1442 1441 1443 1446 1452 1459 1467 1474 1482 1487 1491 1495 1498 1501 1505 1510 1515 1519 1526 1529 1533 1538 1542 1545 1550 1554
1435 1433 1431 1433 1433 1432 1438 1438 1437 1440 1446 1452 1458 1464 1472 1477 1481 1484 1487 1491 1495 1499 1506 1510 1514 1521 1523 1531 1534 1538 1541 1546
1439 1434 1429 1426 1421 1425 1428 1429 1428 1430 1434 1439 1449 1456 1463 1468 1472 1474 1476 1479 1485 1490 1495 1502 1506 1511 1516 1520 1526 1529 1533 1538
1436 1429 1426 1421 1417 1413 1416 1422 1413 1421 1424 1430 1437 1444 1452 1456 1463 1466 1467 1470 1475 1483 1487 1492 1497 1501 1506 1511 1515 1518 1522 1526
1438 1431 1424 1419 1416 1413 1410 1412 1411 1395 1416 1422 1427 1433 1441 1448 1454 1457 1459 1462 1467 1471 1479 1483 1489 1493 1497 1502 1505 1509 1514 1516
1439 1433 1425 1418 1414 1413 1407 1405 1404 1394 1406 1415 1419 1425 1431 1439 1445 1450 1453 1456 1459 1463 1468 1474 1478 1484 1489 1492 1495 1500 1503 1508
1443 1434 1427 1421 1415 1411 1406 1399 1395 1400 1401 1408 1414 1417 1423 1429 1434 1440 1446 1447 1451 1455 1459 1465 1469 1474 1479 1482 1485 1490 1494 1497
1443 1435 1432 1427 1416 1410 1402 1396 1391 1388 1395 1399 1406 1411 1416 1420 1424 1430 1436 1441 1444 1447 1451 1455 1460 1463 1468 1472 1476 1480 1483 1486
1444 1441 1436 1429 1418 1409 1401 1395 1391 1387 1387 1389 1395 1399 1404 1407 1412 1418 1426 1431 1436 1438 1440 1445 1449 1454 1457 1462 1467 1471 1475 1478
1447 1441 1439 1424 1417 1409 1403 1398 1393 1387 1386 1386 1388 1390 1395 1398 1404 1408 1415 1421 1425 1429 1433 1435 1440 1444 1447 1451 1456 1459 1463 1467
1448 1442 1430 1430 1421 1413 1408 1403 1397 1392 1389 1385 1385 1387 1387 1396 1400 1403 1408 1410 1415 1421 1423 1426 1430 1433 1435 1440 1445 1448 1451 1456
1450 1445 1439 1435 1426 1418 1411 1407 1402 1395 1391 1387 1385 1385 1386 1386 1387 1394 1397 1399 1404 1410 1413 1417 1418 1423 1427 1431 1435 1438 1441 1443
1449 1445 1441 1436 1432 1424 1417 1411 1405 1400 1395 1389 1384 1381 1381 1382 1381 1382 1386 1390 1392 1398 1402 1406 1411 1412 1418 1424 1429 1432 1433 1435